| time (UTC) | temp F | wind direction | speed knots | gust knots | rain 1hr in | rain 24hr in | rain mn in | humidity % | barometer mb |
| 20260507153604 | 45 | 61 | 0.9 | 2.6 | 0.00 | 0.02 | 0.02 | 66 | 1013.4 |
| 20260507152703 | 45 | 61 | 0.0 | 3.5 | 0.00 | 0.02 | 0.02 | 65 | 1013.3 |
| 20260507151803 | 45 | 61 | 0.9 | 3.5 | 0.00 | 0.02 | 0.02 | 63 | 1013.4 |
| 20260507150925 | 46 | 88 | 1.7 | 3.5 | 0.00 | 0.02 | 0.02 | 63 | 1013.5 |
| 20260507150004 | 46 | 88 | 1.7 | 6.1 | 0.00 | 0.02 | 0.02 | 64 | 1013.5 |
| 20260507145404 | 46 | 132 | 1.7 | 4.3 | 0.00 | 0.02 | 0.02 | 66 | 1013.5 |
| 20260507144504 | 46 | 142 | 2.6 | 6.1 | 0.00 | 0.02 | 0.02 | 67 | 1013.5 |
| 20260507143603 | 46 | 133 | 2.6 | 7.0 | 0.00 | 0.02 | 0.02 | 69 | 1013.6 |
| 20260507142724 | 45 | 144 | 2.6 | 7.0 | 0.00 | 0.02 | 0.02 | 69 | 1013.6 |
| 20260507141803 | 44 | 146 | 1.7 | 5.2 | 0.00 | 0.02 | 0.02 | 72 | 1013.6 |
| 20260507140903 | 43 | 207 | 0.9 | 3.5 | 0.00 | 0.02 | 0.02 | 72 | 1013.6 |
| 20260507140025 | 42 | 303 | 0.9 | 3.5 | 0.00 | 0.02 | 0.02 | 75 | 1013.6 |
| 20260507135403 | 42 | 333 | 2.6 | 3.5 | 0.00 | 0.02 | 0.02 | 73 | 1013.6 |
| 20260507134503 | 41 | 333 | 5.2 | 8.7 | 0.00 | 0.02 | 0.02 | 78 | 1013.6 |
| 20260507133604 | 40 | 316 | 7.0 | 11.3 | 0.00 | 0.02 | 0.02 | 78 | 1014.0 |
| 20260507132703 | 40 | 311 | 7.0 | 10.4 | 0.00 | 0.02 | 0.02 | 79 | 1014.2 |
| 20260507131803 | 41 | 316 | 5.2 | 9.6 | 0.01 | 0.02 | 0.02 | 80 | 1014.1 |
| 20260507130903 | 41 | 327 | 5.2 | 9.6 | 0.01 | 0.02 | 0.02 | 80 | 1014.0 |
| 20260507130025 | 41 | 335 | 3.5 | 7.0 | 0.02 | 0.02 | 0.02 | 81 | 1014.1 |
| 20260507125403 | 42 | 346 | 2.6 | 7.8 | 0.02 | 0.02 | 0.02 | 81 | 1014.0 |
| 20260507124503 | 42 | 318 | 5.2 | 8.7 | 0.02 | 0.02 | 0.02 | 85 | 1013.9 |
| 20260507123604 | 41 | 331 | 6.1 | 11.3 | 0.02 | 0.02 | 0.02 | 83 | 1014.0 |
| 20260507122705 | 40 | 318 | 6.1 | 11.3 | 0.02 | 0.02 | 0.02 | 84 | 1014.2 |
| 20260507121803 | 40 | 287 | 3.5 | 7.8 | 0.01 | 0.01 | 0.01 | 82 | 1014.3 |
| 20260507120903 | 41 | 222 | 2.6 | 5.2 | 0.01 | 0.01 | 0.01 | 80 | 1014.4 |
| 20260507120004 | 41 | 282 | 2.6 | 6.1 | 0.00 | 0.00 | 0.00 | 75 | 1014.3 |
| 20260507115424 | 42 | 251 | 0.9 | 3.5 | 0.00 | 0.00 | 0.00 | 76 | 1014.2 |
| 20260507114524 | 43 | 316 | 4.3 | 12.2 | 0.00 | 0.00 | 0.00 | 71 | 1014.1 |
| 20260507113603 | 44 | 316 | 2.6 | 12.2 | 0.00 | 0.00 | 0.00 | 64 | 1013.9 |
| 20260507112703 | 45 | 356 | 0.0 | 2.6 | 0.00 | 0.00 | 0.00 | 62 | 1013.7 |
| 20260507111803 | 45 | 183 | 3.5 | 7.8 | 0.00 | 0.00 | 0.00 | 63 | 1013.6 |
| 20260507110903 | 45 | 199 | 3.5 | 10.4 | 0.00 | 0.00 | 0.00 | 63 | 1013.6 |
| 20260507110025 | 46 | 291 | 3.5 | 10.4 | 0.00 | 0.00 | 0.00 | 59 | 1013.5 |
| 20260507105403 | 46 | 309 | 1.7 | 6.1 | 0.00 | 0.00 | 0.00 | 58 | 1013.5 |
| 20260507104504 | 45 | 350 | 1.7 | 7.8 | 0.00 | 0.00 | 0.00 | 62 | 1013.5 |
| 20260507103603 | 44 | 8 | 2.6 | 4.3 | 0.00 | 0.00 | 0.00 | 62 | 1013.5 |
| 20260507102703 | 44 | 283 | 1.7 | 4.3 | 0.00 | 0.00 | 0.00 | 65 | 1013.6 |
| 20260507101803 | 43 | 271 | 1.7 | 8.7 | 0.00 | 0.00 | 0.00 | 67 | 1013.6 |
| 20260507100903 | 44 | 291 | 6.1 | 13.0 | 0.00 | 0.00 | 0.00 | 63 | 1013.6 |
| 20260507100004 | 45 | 290 | 8.7 | 16.5 | 0.00 | 0.00 | 0.00 | 57 | 1013.3 |
| 20260507095403 | 45 | 294 | 8.7 | 15.6 | 0.00 | 0.00 | 0.00 | 54 | 1013.4 |
| 20260507094504 | 45 | 292 | 7.8 | 12.2 | 0.00 | 0.00 | 0.00 | 53 | 1013.4 |
| 20260507093603 | 45 | 275 | 7.8 | 14.8 | 0.00 | 0.00 | 0.00 | 55 | 1013.3 |
| 20260507092703 | 46 | 279 | 6.1 | 13.9 | 0.00 | 0.00 | 0.00 | 55 | 1013.2 |
| 20260507091803 | 47 | 261 | 4.3 | 11.3 | 0.00 | 0.00 | 0.00 | 50 | 1013.1 |
| 20260507090924 | 47 | 270 | 3.5 | 8.7 | 0.00 | 0.00 | 0.00 | 49 | 1013.0 |
| 20260507090024 | 48 | 282 | 7.0 | 13.9 | 0.00 | 0.00 | 0.00 | 46 | 1013.0 |
| 20260507085403 | 49 | 289 | 6.1 | 13.9 | 0.00 | 0.00 | 0.00 | 44 | 1012.9 |
| 20260507084503 | 50 | 272 | 4.3 | 13.0 | 0.00 | 0.00 | 0.00 | 43 | 1012.9 |
| 20260507083603 | 51 | 239 | 3.5 | 8.7 | 0.00 | 0.00 | 0.00 | 44 | 1012.8 |
| 20260507082724 | 51 | 186 | 4.3 | 13.0 | 0.00 | 0.00 | 0.00 | 44 | 1013.0 |
| 20260507081803 | 50 | 188 | 5.2 | 13.0 | 0.00 | 0.00 | 0.00 | 48 | 1012.9 |
| 20260507080903 | 49 | 207 | 3.5 | 10.4 | 0.00 | 0.00 | 0.00 | 50 | 1013.0 |
| 20260507080004 | 49 | 203 | 2.6 | 7.8 | 0.00 | 0.00 | 0.00 | 51 | 1013.0 |
| 20260507075403 | 49 | 198 | 3.5 | 8.7 | 0.00 | 0.00 | 0.00 | 52 | 1013.0 |
| 20260507074503 | 48 | 213 | 3.5 | 10.4 | 0.00 | 0.00 | 0.00 | 54 | 1012.9 |
| 20260507073603 | 48 | 225 | 3.5 | 9.6 | 0.00 | 0.00 | 0.00 | 54 | 1012.9 |
| 20260507072703 | 48 | 164 | 4.3 | 9.6 | 0.00 | 0.00 | 0.00 | 57 | 1012.9 |
| 20260507071803 | 47 | 164 | 5.2 | 10.4 | 0.00 | 0.00 | 0.00 | 62 | 1012.9 |
| 20260507070903 | 46 | 170 | 4.3 | 7.8 | 0.00 | 0.00 | 0.00 | 63 | 1012.9 |
| 20260507070024 | 46 | 168 | 5.2 | 9.6 | 0.00 | 0.00 | 0.00 | 65 | 1012.9 |
| 20260507065403 | 46 | 174 | 4.3 | 9.6 | 0.00 | 0.00 | 0.00 | 65 | 1012.9 |
| 20260507064503 | 46 | 166 | 4.3 | 8.7 | 0.00 | 0.00 | 0.00 | 66 | 1012.9 |
| 20260507063624 | 45 | 156 | 5.2 | 8.7 | 0.00 | 0.00 | 0.00 | 67 | 1012.8 |
| 20260507062724 | 44 | 162 | 4.3 | 7.8 | 0.00 | 0.00 | 0.00 | 69 | 1012.9 |
| 20260507061803 | 43 | 166 | 2.6 | 7.0 | 0.00 | 0.00 | 0.00 | 72 | 1012.9 |
| 20260507060925 | 42 | 248 | 2.6 | 6.1 | 0.00 | 0.00 | 0.00 | 70 | 1012.8 |
| 20260507060003 | 42 | 228 | 1.7 | 7.0 | 0.00 | 0.00 | 0.00 | 71 | 1012.8 |
| 20260507055403 | 42 | 203 | 1.7 | 7.0 | 0.00 | 0.00 | 0.00 | 73 | 1012.8 |
| 20260507054503 | 41 | 203 | 2.6 | 7.8 | 0.00 | 0.00 | 0.00 | 75 | 1012.7 |
| 20260507053624 | 40 | 210 | 1.7 | 5.2 | 0.00 | 0.00 | 0.00 | 76 | 1012.8 |
| 20260507052703 | 40 | 200 | 1.7 | 5.2 | 0.00 | 0.00 | 0.00 | 77 | 1012.8 |
| 20260507051803 | 40 | 197 | 1.7 | 6.1 | 0.00 | 0.00 | 0.00 | 77 | 1012.8 |
| 20260507050903 | 40 | 202 | 1.7 | 6.1 | 0.00 | 0.00 | 0.00 | 78 | 1012.6 |
| 20260507050003 | 40 | 177 | 2.6 | 5.2 | 0.00 | 0.00 | 0.00 | 79 | 1012.2 |
| 20260507045403 | 39 | 186 | 3.5 | 6.1 | 0.00 | 0.00 | 0.00 | 80 | 1012.8 |
| 20260507044503 | 38 | 185 | 1.7 | 6.1 | 0.00 | 0.00 | 0.00 | 84 | 1012.3 |
| 20260507043603 | 36 | 157 | 1.7 | 4.3 | 0.00 | 0.00 | 0.00 | 85 | 1012.3 |
| 20260507042703 | 35 | 171 | 1.7 | 3.5 | 0.00 | 0.00 | 0.00 | 88 | 1012.7 |
| 20260507041824 | 34 | 179 | 0.9 | 3.5 | 0.00 | 0.00 | 0.00 | 91 | 1012.3 |
| 20260507040924 | 32 | 175 | 0.0 | 0.9 | 0.00 | 0.00 | 0.00 | 94 | 1012.0 |
| 20260507040003 | 30 | 0 | 0.0 | 0.0 | 0.00 | 0.00 | 0.00 | 93 | 1011.5 |
| 20260507035403 | 28 | 176 | 0.0 | 1.7 | 0.00 | 0.00 | 0.00 | 93 | 1010.3 |
| 20260507034503 | 28 | 176 | 0.9 | 2.6 | 0.00 | 0.00 | 0.00 | 92 | 1013.3 |
| 20260507033624 | 28 | 176 | 0.9 | 2.6 | 0.00 | 0.00 | 0.00 | 93 | 1012.5 |
| 20260507032724 | 27 | 176 | 2.6 | 3.5 | 0.00 | 0.00 | 0.00 | 94 | 1012.5 |
| 20260507031803 | 26 | 176 | 1.7 | 3.5 | 0.00 | 0.00 | 0.00 | 93 | 1012.3 |
| 20260507030903 | 26 | 0 | 0.0 | 0.0 | 0.00 | 0.00 | 0.00 | 93 | 1012.3 |
| 20260507030003 | 25 | 176 | 0.0 | 1.7 | 0.00 | 0.00 | 0.00 | 93 | 1012.2 |
| 20260507025424 | 25 | 176 | 0.0 | 1.7 | 0.00 | 0.00 | 0.00 | 92 | 1012.3 |
| 20260507024503 | 25 | 0 | 0.0 | 0.0 | 0.00 | 0.00 | 0.00 | 92 | 1012.3 |
| 20260507023624 | 25 | 176 | 0.0 | 0.9 | 0.00 | 0.00 | 0.00 | 92 | 1012.1 |
| 20260507022703 | 26 | 0 | 0.0 | 0.0 | 0.00 | 0.00 | 0.00 | 92 | 1012.1 |
| 20260507021803 | 26 | 0 | 0.0 | 0.0 | 0.00 | 0.00 | 0.00 | 92 | 1012.1 |
| 20260507020903 | 26 | 0 | 0.0 | 0.0 | 0.00 | 0.00 | 0.00 | 93 | 1012.1 |
| 20260507020024 | 26 | 0 | 0.0 | 0.0 | 0.00 | 0.00 | 0.00 | 92 | 1012.1 |
| 20260507015403 | 26 | 0 | 0.0 | 0.0 | 0.00 | 0.00 | 0.00 | 92 | 1012.1 |
| 20260507014503 | 26 | 0 | 0.0 | 0.0 | 0.00 | 0.00 | 0.00 | 92 | 1012.1 |
| 20260507013603 | 26 | 0 | 0.0 | 0.0 | 0.00 | 0.00 | 0.00 | 92 | 1012.1 |
| 20260507012703 | 26 | 176 | 0.0 | 1.7 | 0.00 | 0.00 | 0.00 | 92 | 1012.0 |
| 20260507011803 | 26 | 0 | 0.0 | 0.0 | 0.00 | 0.00 | 0.00 | 92 | 1012.0 |
| 20260507010903 | 26 | 0 | 0.0 | 0.0 | 0.00 | 0.00 | 0.00 | 92 | 1012.1 |
| 20260507010004 | 26 | 176 | 0.0 | 0.9 | 0.00 | 0.00 | 0.00 | 92 | 1012.1 |
| 20260507005403 | 26 | 176 | 0.0 | 2.6 | 0.00 | 0.00 | 0.00 | 92 | 1012.0 |
| 20260507004503 | 26 | 0 | 0.0 | 0.0 | 0.00 | 0.00 | 0.00 | 92 | 1011.9 |
| 20260507003603 | 27 | 0 | 0.0 | 0.0 | 0.00 | 0.00 | 0.00 | 92 | 1011.7 |
| 20260507002724 | 27 | 0 | 0.0 | 0.0 | 0.00 | 0.00 | 0.00 | 92 | 1011.7 |
| 20260507001803 | 27 | 0 | 0.0 | 0.0 | 0.00 | 0.00 | 0.00 | 92 | 1011.7 |
| 20260507000903 | 26 | 240 | 0.0 | 0.0 | 0.00 | 0.00 | 0.00 | 92 | 1011.7 |
| 20260507000004 | 26 | 240 | 0.0 | 0.9 | 0.00 | 0.00 | 0.00 | 92 | 1011.6 |
| 20260506235403 | 26 | 240 | 0.0 | 0.9 | 0.00 | 0.00 | 0.00 | 92 | 1011.6 |
| 20260506234524 | 26 | 240 | 0.0 | 1.7 | 0.00 | 0.00 | 0.00 | 91 | 1011.7 |
| 20260506233624 | 27 | 240 | 0.0 | 0.9 | 0.00 | 0.00 | 0.00 | 92 | 1011.6 |
| 20260506232724 | 27 | 240 | 0.0 | 1.7 | 0.00 | 0.00 | 0.00 | 92 | 1011.5 |
| 20260506231803 | 28 | 240 | 0.0 | 1.7 | 0.00 | 0.00 | 0.00 | 92 | 1011.5 |
| 20260506230903 | 28 | 243 | 0.0 | 2.6 | 0.00 | 0.00 | 0.00 | 92 | 1011.5 |
| 20260506230003 | 28 | 0 | 0.0 | 0.0 | 0.00 | 0.00 | 0.00 | 92 | 1011.5 |
| 20260506225403 | 28 | 0 | 0.0 | 0.0 | 0.00 | 0.00 | 0.00 | 92 | 1011.5 |
| 20260506224503 | 28 | 0 | 0.0 | 0.0 | 0.00 | 0.00 | 0.00 | 92 | 1011.4 |
| 20260506223603 | 28 | 331 | 0.0 | 0.9 | 0.00 | 0.00 | 0.00 | 92 | 1011.3 |
| 20260506222703 | 28 | 331 | 0.0 | 1.7 | 0.00 | 0.00 | 0.00 | 92 | 1011.2 |
| 20260506221803 | 28 | 331 | 0.0 | 1.7 | 0.00 | 0.00 | 0.00 | 92 | 1011.1 |
| 20260506220903 | 28 | 0 | 0.0 | 0.0 | 0.00 | 0.00 | 0.00 | 92 | 1011.2 |
| 20260506220024 | 28 | 0 | 0.0 | 0.0 | 0.00 | 0.00 | 0.00 | 92 | 1011.1 |
| 20260506215403 | 28 | 0 | 0.0 | 0.0 | 0.00 | 0.00 | 0.00 | 91 | 1011.0 |
| 20260506214503 | 29 | 331 | 0.0 | 0.9 | 0.00 | 0.00 | 0.00 | 91 | 1011.0 |
| 20260506213603 | 29 | 331 | 0.0 | 1.7 | 0.00 | 0.00 | 0.00 | 92 | 1010.9 |
| 20260506212703 | 29 | 331 | 0.0 | 1.7 | 0.00 | 0.00 | 0.00 | 92 | 1011.0 |
| 20260506211803 | 28 | 331 | 0.0 | 1.7 | 0.00 | 0.00 | 0.00 | 91 | 1010.9 |
| 20260506210903 | 28 | 331 | 0.0 | 1.7 | 0.00 | 0.00 | 0.00 | 91 | 1010.9 |
| 20260506210004 | 28 | 0 | 0.0 | 0.0 | 0.00 | 0.00 | 0.00 | 90 | 1010.8 |
| 20260506205403 | 29 | 0 | 0.0 | 0.0 | 0.00 | 0.00 | 0.00 | 91 | 1010.8 |
| 20260506204503 | 28 | 0 | 0.0 | 0.0 | 0.00 | 0.00 | 0.00 | 91 | 1010.8 |
| 20260506203603 | 28 | 331 | 0.0 | 1.7 | 0.00 | 0.00 | 0.00 | 90 | 1010.8 |
| 20260506202703 | 28 | 0 | 0.0 | 0.0 | 0.00 | 0.00 | 0.00 | 90 | 1010.9 |
| 20260506201803 | 29 | 331 | 0.0 | 0.9 | 0.00 | 0.00 | 0.00 | 91 | 1010.8 |
| 20260506200924 | 28 | 331 | 0.0 | 1.7 | 0.00 | 0.00 | 0.00 | 89 | 1010.7 |
| 20260506200003 | 28 | 331 | 0.0 | 0.9 | 0.00 | 0.00 | 0.00 | 89 | 1010.7 |
| 20260506195403 | 28 | 331 | 0.0 | 0.9 | 0.00 | 0.00 | 0.00 | 88 | 1010.7 |
| 20260506194503 | 29 | 331 | 0.0 | 0.9 | 0.00 | 0.00 | 0.00 | 88 | 1010.7 |
| 20260506193603 | 29 | 331 | 0.0 | 0.9 | 0.00 | 0.00 | 0.00 | 88 | 1010.7 |
| 20260506192724 | 30 | 331 | 0.0 | 0.9 | 0.00 | 0.00 | 0.00 | 88 | 1010.7 |
| 20260506191803 | 30 | 0 | 0.0 | 0.0 | 0.00 | 0.00 | 0.00 | 87 | 1010.7 |
| 20260506190903 | 31 | 0 | 0.0 | 0.0 | 0.00 | 0.00 | 0.00 | 85 | 1010.6 |
| 20260506190006 | 32 | 0 | 0.0 | 0.0 | 0.00 | 0.00 | 0.00 | 84 | 1010.5 |
| 20260506185426 | 32 | 0 | 0.0 | 0.0 | 0.00 | 0.00 | 0.00 | 84 | 1010.4 |
| 20260506184505 | 34 | 0 | 0.0 | 0.0 | 0.00 | 0.00 | 0.00 | 82 | 1010.4 |
| 20260506183605 | 35 | 0 | 0.0 | 0.0 | 0.00 | 0.00 | 0.00 | 81 | 1010.3 |
| 20260506182705 | 36 | 0 | 0.0 | 0.0 | 0.00 | 0.00 | 0.00 | 78 | 1010.2 |
| 20260506181804 | 38 | 331 | 1.7 | 4.3 | 0.00 | 0.00 | 0.00 | 78 | 1010.0 |
| 20260506180905 | 38 | 331 | 1.7 | 2.6 | 0.00 | 0.00 | 0.00 | 78 | 1009.9 |
| 20260506180006 | 39 | 334 | 3.5 | 5.2 | 0.00 | 0.00 | 0.00 | 78 | 1009.9 |
| 20260506175405 | 39 | 331 | 3.5 | 5.2 | 0.00 | 0.00 | 0.00 | 77 | 1009.8 |
| 20260506174526 | 40 | 330 | 2.6 | 4.3 | 0.00 | 0.00 | 0.00 | 76 | 1009.8 |
| 20260506173605 | 40 | 306 | 3.5 | 7.0 | 0.00 | 0.00 | 0.00 | 76 | 1009.8 |
| 20260506172705 | 40 | 317 | 3.5 | 7.0 | 0.00 | 0.00 | 0.00 | 77 | 1009.6 |
| 20260506171805 | 40 | 318 | 5.2 | 10.4 | 0.00 | 0.00 | 0.00 | 76 | 1009.6 |
| 20260506170904 | 40 | 306 | 5.2 | 9.6 | 0.00 | 0.00 | 0.00 | 77 | 1009.5 |
| 20260506170026 | 40 | 306 | 6.1 | 9.6 | 0.00 | 0.00 | 0.00 | 77 | 1009.4 |
| 20260506165405 | 39 | 317 | 5.2 | 8.7 | 0.00 | 0.00 | 0.00 | 77 | 1009.4 |
| 20260506164505 | 40 | 299 | 3.5 | 7.8 | 0.00 | 0.00 | 0.00 | 78 | 1009.3 |
| 20260506163604 | 39 | 299 | 5.2 | 9.6 | 0.00 | 0.00 | 0.00 | 78 | 1009.2 |
| 20260506162705 | 39 | 299 | 6.1 | 9.6 | 0.00 | 0.00 | 0.00 | 77 | 1009.3 |
| 20260506161805 | 40 | 307 | 6.1 | 10.4 | 0.00 | 0.00 | 0.00 | 77 | 1009.2 |
| 20260506160926 | 40 | 295 | 7.0 | 12.2 | 0.00 | 0.00 | 0.00 | 76 | 1009.1 |
| 20260506160005 | 40 | 300 | 7.8 | 12.2 | 0.00 | 0.00 | 0.00 | 77 | 1009.0 |
| 20260506155405 | 40 | 303 | 7.0 | 11.3 | 0.00 | 0.00 | 0.00 | 77 | 1008.9 |
| 20260506154504 | 40 | 302 | 6.1 | 10.4 | 0.00 | 0.00 | 0.00 | 77 | 1008.9 |